Theta_e
288 288 287 287 286 286 286 285 285 284 283 283 282 282 282 283 283 282 282 282 282 282 282 281 281 281 282 281 281 281 281 280 280 281 280 280 279 279 281 279 279 279
287 287 287 286 286 286 285 285 284 283 283 283 282 282 283 282 282 281 281 281 281 281 281 281 280 279 279 279 279 279 279 278 279 282 279 278 278 278 278 278 278 279
287 287 286 285 285 284 284 284 283 283 282 282 283 282 283 282 281 280 281 280 280 280 280 279 278 278 278 277 277 277 278 277 278 278 278 277 278 278 278 277 278 277
286 286 285 285 285 284 284 283 282 282 282 281 281 282 282 282 280 280 279 280 278 278 278 277 277 277 276 276 277 277 277 277 277 277 277 277 278 277 277 277 277 277
285 285 285 284 284 284 283 282 282 281 281 280 280 280 280 279 278 278 278 277 277 276 276 276 276 276 276 276 276 276 277 277 276 276 276 275 276 277 277 277 276 276
284 284 284 283 283 282 282 281 281 280 280 279 279 279 278 278 277 277 276 276 276 276 275 275 275 275 275 275 275 275 275 276 276 275 275 274 275 276 277 277 275 275
283 283 282 282 282 281 280 280 279 279 278 278 278 277 277 277 277 276 276 275 275 276 275 275 274 274 275 274 274 274 274 274 274 274 274 274 274 274 275 275 275 274
281 281 281 280 279 279 278 278 277 278 277 277 276 277 276 276 276 276 275 275 275 275 275 274 274 274 274 273 273 273 272 276 275 273 273 273 273 273 274 276 274 273
280 280 279 279 278 278 277 277 276 277 277 276 276 276 276 275 275 275 275 275 274 275 274 274 274 273 273 273 273 272 272 272 273 272 272 272 272 273 273 273 273 273
280 279 278 277 277 276 276 276 276 276 277 276 276 275 275 275 274 274 274 274 274 273 273 273 273 272 272 272 272 272 271 272 271 272 272 272 273 272 273 273 273 272
279 278 277 276 276 275 275 275 275 275 275 275 275 275 274 274 274 274 273 273 274 273 273 272 272 272 272 271 271 271 271 271 271 272 272 272 272 273 275 273 272 272
278 277 276 275 275 275 275 275 275 274 274 274 274 273 273 273 272 272 272 271 272 272 271 271 271 271 271 271 271 271 271 271 272 272 273 272 272 273 272 272 272 272
277 276 276 275 275 275 274 274 275 274 273 272 272 272 272 271 271 271 272 271 271 271 271 271 271 271 271 271 270 271 272 272 272 272 272 272 272 273 273 273 273 273
276 276 276 276 275 274 274 274 274 273 272 272 272 271 271 271 271 271 271 271 271 271 271 271 270 270 270 270 271 271 271 272 272 272 272 272 272 273 273 273 273 272
277 277 276 276 275 275 274 273 273 272 272 271 271 271 272 270 271 270 270 270 270 270 270 271 270 270 271 269 269 271 273 273 273 273 273 272 272 272 272 272 272 272
277 276 275 275 275 274 274 274 273 272 272 272 271 269 269 269 269 270 270 270 269 269 270 270 270 271 272 274 274 273 273 274 273 273 273 273 272 271 271 272 272 272
277 276 275 275 275 275 274 273 273 272 271 270 269 268 268 268 269 269 268 269 269 268 268 269 270 270 274 275 275 276 275 274 273 273 273 273 272 271 270 270 271 272
276 276 275 275 274 274 273 272 272 270 269 267 266 266 267 266 267 268 268 268 268 268 268 268 269 273 274 275 275 276 276 275 274 273 273 272 272 272 271 271 270 270
277 276 275 274 274 273 272 271 270 270 268 267 266 266 266 266 268 268 267 267 267 267 266 267 268 272 274 275 275 275 276 275 274 273 272 272 272 272 272 271 270 269
276 276 275 274 273 272 271 270 269 268 267 266 266 267 267 266 266 266 266 265 266 266 265 266 266 270 273 274 275 275 276 275 273 273 272 272 272 272 271 270 269 268
276 275 274 273 272 271 270 269 268 268 268 267 267 267 266 266 265 264 264 264 263 264 263 264 266 271 273 274 275 275 275 275 273 272 271 271 271 271 270 269 269 269
276 275 274 272 271 270 269 268 268 268 267 267 266 266 265 265 264 264 264 264 264 262 263 262 264 271 273 274 274 274 275 273 271 270 270 270 270 270 270 270 270 270
276 275 273 271 270 269 268 268 268 266 266 266 265 267 266 265 264 263 263 263 262 261 261 262 263 267 271 272 273 274 274 270 270 269 269 269 270 270 270 271 271 270
276 275 273 270 269 269 268 268 267 266 266 266 265 265 265 264 263 262 262 262 262 261 262 260 261 265 270 272 273 274 273 271 270 269 269 269 269 270 271 271 271 272
275 273 271 270 269 269 268 268 267 266 266 265 264 264 264 263 263 262 261 261 261 261 265 263 261 264 269 271 272 273 272 270 269 269 268 268 269 269 270 270 271 272
273 272 271 271 270 268 267 267 266 265 264 264 263 263 263 262 262 262 261 261 261 260 261 261 261 261 263 269 271 272 273 271 270 269 268 268 269 269 269 270 271 271
Wind_Speed
7 7 8 8 7 7 7 7 7 7 7 6 7 6 6 5 5 5 4 5 5 5 5 6 5 6 5 4 4 4 4 4 4 4 5 5 5 5 6 6 5 5
8 8 7 7 7 7 7 7 7 7 7 7 6 6 5 5 4 4 4 4 5 6 5 5 4 4 4 4 4 3 3 3 4 4 5 5 4 4 5 5 4 5
7 7 7 7 8 8 8 7 7 7 7 7 6 5 5 4 4 4 5 5 5 5 5 4 4 4 4 4 4 3 4 4 5 5 5 5 5 4 4 4 4 4
7 7 7 7 7 8 7 8 7 7 6 6 5 4 4 4 4 5 5 6 5 4 4 4 4 3 4 4 4 4 4 4 4 5 4 5 5 4 4 4 3 4
7 7 6 6 6 7 7 8 7 7 6 5 5 4 5 5 5 5 5 4 4 4 4 4 4 4 4 4 4 4 4 5 4 5 4 4 5 4 3 3 3 4
6 6 6 6 6 7 7 7 6 6 6 5 5 5 5 5 5 5 4 4 4 4 3 3 4 4 3 4 4 4 4 5 4 4 4 4 4 5 3 4 4 4
7 6 7 7 8 7 7 6 6 5 5 5 5 6 5 6 6 5 4 3 3 3 3 2 3 3 3 3 3 4 4 4 4 4 4 4 4 4 4 4 3 4
7 6 6 7 7 6 7 6 5 5 5 5 7 5 6 5 5 3 3 2 2 2 2 2 2 2 3 3 3 3 4 3 4 4 4 4 4 4 4 4 3 4
7 7 7 7 7 6 6 5 4 4 4 6 6 5 4 4 4 3 2 1 1 1 2 2 2 2 3 3 3 3 3 3 4 4 3 3 3 3 3 3 3 4
7 7 8 7 7 6 6 5 5 5 5 6 4 4 5 3 3 2 1 1 1 2 1 1 2 2 2 3 2 2 3 3 3 3 3 3 3 3 4 3 4 4
8 7 7 7 7 6 6 6 5 5 4 4 4 4 3 3 3 2 1 2 2 1 1 1 1 1 2 2 2 2 2 2 3 2 3 3 3 4 4 4 4 4
8 7 7 7 7 7 7 6 6 5 4 4 4 3 3 3 2 1 3 1 1 1 1 0 1 1 1 1 1 1 2 2 2 3 3 3 3 4 4 4 4 5
8 8 8 8 7 7 6 6 6 5 5 4 3 3 3 3 3 1 0 3 0 1 0 1 1 0 0 0 1 2 3 3 3 3 3 3 3 4 4 4 5 4
8 8 8 8 7 7 7 6 6 5 5 4 3 2 2 3 2 3 1 2 1 1 0 0 0 0 1 1 2 2 2 2 2 3 3 4 4 4 4 4 4 4
9 8 8 8 9 8 8 7 6 5 4 4 3 2 3 2 1 2 0 1 2 2 1 0 1 1 1 2 1 2 2 3 4 4 5 4 4 4 4 4 5 5
10 9 9 9 9 9 8 7 6 6 5 4 3 3 2 2 1 1 2 1 1 1 1 1 1 1 2 2 2 1 2 3 4 5 5 6 6 5 4 4 4 5
10 10 10 10 9 9 7 7 7 5 4 3 3 3 2 1 1 2 2 2 2 1 2 1 1 1 4 4 3 4 4 4 4 5 5 6 6 5 5 5 4 5
11 11 11 10 9 8 8 7 7 6 5 4 4 3 2 2 2 3 2 2 1 2 2 2 1 4 5 4 4 4 5 4 4 4 5 6 6 6 5 5 5 5
11 11 10 10 9 9 8 8 8 7 5 5 5 4 3 3 4 3 2 2 3 3 3 2 1 5 5 5 5 5 6 6 4 5 5 6 6 7 7 6 5 6
11 10 10 10 9 9 9 8 8 7 5 4 4 4 4 3 3 3 2 3 3 3 3 2 2 5 6 6 5 6 6 6 4 5 6 6 7 7 5 5 5 6
12 10 10 9 9 9 9 9 8 7 6 6 6 5 6 5 4 3 4 4 3 2 2 3 3 6 7 7 6 7 7 6 4 4 5 5 6 6 5 5 5 6
12 11 10 9 10 9 9 9 8 8 8 6 5 4 4 4 3 4 4 4 4 3 2 4 4 7 7 6 7 6 7 3 3 4 4 5 5 6 6 6 6 6
12 12 11 11 10 10 10 10 10 8 6 5 6 5 5 5 5 4 4 4 4 4 4 4 4 6 7 6 7 7 5 1 4 4 5 5 6 6 6 7 7 7
12 12 12 11 11 12 11 9 7 5 7 6 8 7 6 6 4 4 4 4 4 5 4 4 5 6 8 8 8 8 6 3 3 4 5 5 5 6 6 6 7 12
10 11 11 12 12 11 10 11 10 9 7 6 6 5 5 5 4 5 4 4 5 4 6 6 5 7 8 9 9 7 5 4 4 4 5 5 5 5 5 5 7 8
9 11 11 12 12 9 8 8 7 7 8 7 5 5 5 4 4 5 5 5 4 4 5 4 4 5 5 10 8 8 9 5 3 4 5 6 5 5 5 6 7 6
Wind_Direction
98 96 98 96 93 92 95 96 92 95 90 83 83 78 75 67 51 50 63 66 57 53 44 42 39 30 20 12 0 33 34 33 33 28 4 12 23 29 24 11 1 17
94 96 95 94 92 88 87 90 92 90 90 89 88 87 77 75 63 58 54 67 62 53 46 44 43 37 23 13 359 37 22 33 40 18 6 9 9 33 26 10 8 360
98 96 98 102 104 101 96 90 89 86 89 90 88 86 92 88 86 68 61 58 58 57 47 45 42 33 25 13 6 28 20 37 44 18 12 7 1 28 15 20 3 1
96 101 107 106 104 105 104 100 92 89 90 92 100 100 98 91 79 69 59 60 56 49 49 45 45 33 28 12 13 24 17 32 41 28 11 356 349 24 6 27 355 353
113 109 104 102 99 96 94 96 98 103 107 106 94 91 88 79 74 68 59 55 64 50 48 48 33 30 24 9 13 31 14 28 14 19 10 353 335 13 351 12 340 342
106 109 107 107 104 104 102 104 110 110 110 106 108 99 87 81 76 68 66 60 54 60 44 46 37 24 18 13 16 26 18 20 1 12 4 353 340 348 347 354 4 351
121 114 108 102 101 100 103 103 102 108 110 111 95 80 85 80 72 68 62 70 64 61 64 56 43 31 7 28 23 16 7 10 7 8 5 342 349 341 343 0 351 339
115 108 102 102 102 102 103 104 109 112 117 99 91 81 79 83 88 85 76 77 84 67 65 58 43 49 18 33 28 12 9 4 8 7 356 345 349 339 337 339 340 327
114 111 110 109 110 110 108 109 108 101 97 95 89 94 83 86 91 96 88 75 92 94 85 48 61 59 19 40 17 22 10 5 356 359 342 326 329 316 322 322 334 315
119 121 118 120 117 118 116 115 105 91 86 93 103 101 102 101 101 81 79 115 79 72 63 84 55 47 29 26 25 15 20 351 340 329 315 313 321 324 320 318 307 312
130 131 129 125 122 124 120 113 104 99 94 105 109 113 124 126 131 124 67 102 109 99 82 51 74 56 46 21 8 24 14 332 309 311 318 325 323 313 308 306 306 298
139 136 133 130 128 123 119 114 109 107 105 95 107 122 123 120 96 99 130 68 92 98 91 64 68 59 33 23 22 19 350 327 331 325 320 325 316 304 302 307 299 295
145 143 136 133 131 125 117 112 112 116 109 104 101 122 138 133 137 120 49 131 283 110 18 89 72 11 349 28 38 28 20 1 339 329 318 314 301 294 294 288 286 285
148 142 136 134 127 120 115 114 113 108 106 105 113 129 121 137 150 147 193 141 202 122 191 97 13 328 302 75 53 34 21 334 317 308 302 296 290 291 287 283 283 283
142 138 133 127 125 122 122 125 127 120 119 128 141 142 130 123 107 123 267 211 189 177 217 280 180 239 165 97 78 7 319 310 302 297 297 291 288 286 288 289 288 288
144 141 138 133 132 134 136 135 135 132 134 140 148 144 141 126 148 240 189 236 216 254 207 196 227 227 193 180 197 208 280 286 297 293 293 293 293 291 288 283 281 281
147 147 142 145 146 142 142 144 139 141 145 152 157 142 140 132 138 238 223 232 207 224 253 249 214 222 232 232 259 285 293 289 284 289 289 291 286 285 286 289 287 287
154 150 151 151 149 150 149 146 138 141 153 162 161 156 172 161 227 220 223 234 229 245 227 233 241 250 247 256 267 280 282 283 284 283 286 284 286 287 287 290 293 294
157 157 157 155 156 150 147 143 144 149 161 171 178 175 172 173 220 213 217 240 209 231 240 259 248 263 264 268 272 279 283 287 282 278 278 278 283 287 290 292 296 299
159 159 161 160 153 150 149 149 152 168 171 171 166 165 175 191 211 199 222 229 225 223 239 260 256 266 270 272 274 277 282 287 277 278 276 278 278 283 287 293 296 299
163 163 161 158 156 153 154 156 160 163 168 177 174 178 181 191 191 193 225 222 232 234 246 262 260 267 268 269 272 281 284 287 289 285 282 279 279 279 282 281 281 280
166 165 161 159 157 157 159 162 165 173 172 172 166 181 179 163 194 186 218 216 218 215 232 262 266 268 271 274 276 282 284 294 283 280 276 277 278 280 280 279 278 279
170 165 165 164 162 162 169 168 167 170 171 166 166 178 175 179 189 197 199 208 222 210 207 253 266 275 276 275 278 276 285 280 268 267 269 273 276 279 279 280 283 282
174 170 166 165 166 176 175 171 161 161 170 169 170 175 183 188 180 194 210 204 214 217 208 224 259 269 274 280 278 272 263 238 253 259 268 272 273 275 280 281 283 288
172 169 167 168 174 179 170 166 170 172 166 153 164 171 176 165 171 186 217 226 219 216 227 228 249 267 278 282 277 269 261 251 249 252 263 270 275 276 278 279 278 277
170 170 171 172 175 163 165 165 150 147 160 158 164 160 163 163 179 185 205 233 229 225 231 234 241 261 264 269 269 267 262 246 229 239 246 266 267 278 275 263 261 260